Location: Владивосток
(43.1151°N, 131.8856°E)
Time: 19:36:20
(UTC+10:00)

Envisat - Pass Details

Date: 22 January 2022
Orbit: 764 x 765 km, 98.2° (Epoch: 17 May)

Event Time Altitude Azimuth Distance (km) Brightness Sun altitude
Rises 05:07:17 0° 26° (NNE) 3,239 6.6 -38.1°
Reaches altitude 10° 05:10:04 10° 41° (NE) 2,308 5.9 -37.6°
Maximum altitude 05:14:05 23° 93° (E) 1,571 5.1 -36.9°
Drops below altitude 10° 05:18:06 10° 146° (SE) 2,295 5.7 -36.1°
Sets 05:20:50 0° 160° (SSE) 3,217 6.4 -35.6°
